Location: DARK SKY Beskydy - Park tmavé oblohy, www.darkskybeskydy.cz
(49.4926°N, 18.5016°E)
Time: 11:51:19
(UTC+01:00)

Transit 2A Rocket - All Passes

Search period start: 22 February 2024 00:00
Search period end: 03 March 2024 00:00
Orbit: 591 x 904 km, 66.7° (Epoch: 21 February)

Date Brightness Start Highest point End Pass type
(mag) Time Alt. Az. Time Alt. Az. Time Alt. Az.
22 Feb - 01:02:32 10° SSE 01:06:01 25° ESE 01:09:35 10° ENE night (unlit)
22 Feb - 02:44:03 10° WSW 02:48:12 47° NW 02:52:31 10° NNE visible
22 Feb - 04:29:32 10° NW 04:31:50 14° NNW 04:34:11 10° N visible
22 Feb - 07:57:37 10° NNW 08:00:55 18° NNE 08:04:22 10° ENE daylight
22 Feb - 09:39:23 10° NNW 09:44:14 65° NE 09:49:33 10° SE daylight
22 Feb - 11:22:27 10° WNW 11:26:24 23° WSW 11:30:35 10° SSW daylight
23 Feb - 00:20:23 10° SE 00:22:35 14° ESE 00:24:48 10° ENE night (unlit)
23 Feb - 02:00:03 10° SW 02:04:20 79° NW 02:08:48 10° NE visible
23 Feb - 03:44:32 10° WNW 03:47:34 18° NNW 03:50:43 10° NNE visible
23 Feb - 07:14:09 10° N 07:16:39 14° NNE 07:19:15 10° NE daylight
23 Feb - 08:55:43 10° NNW 09:00:20 42° NE 09:05:21 10° ESE daylight
23 Feb - 10:38:13 10° NW 10:42:49 38° WSW 10:47:48 10° S daylight
24 Feb - 01:16:24 10° SSW 01:20:36 59° ESE 01:24:58 10° NE visible
24 Feb - 02:59:49 10° W 03:03:25 25° NW 03:07:10 10° NNE visible
24 Feb - 04:46:50 10° NNW 04:47:35 10° N 04:48:21 10° N visible
24 Feb - 06:30:45 10° N 06:32:18 11° NNE 06:33:53 10° NE daylight
24 Feb - 08:12:07 10° NNW 08:16:20 29° NE 08:20:53 10° E daylight
24 Feb - 09:54:15 10° NW 09:59:09 63° WSW 10:04:29 10° SSE daylight
24 Feb - 11:39:57 10° W 11:40:49 10° WSW 11:41:41 10° WSW daylight
25 Feb - 00:33:10 10° S 00:36:59 33° ESE 00:40:57 10° NE night (unlit)
25 Feb - 02:15:22 10° WSW 02:19:23 37° NW 02:23:35 10° NNE visible
25 Feb - 04:01:19 10° NW 04:03:12 12° NNW 04:05:09 10° N visible
25 Feb - 07:28:34 10° NNW 07:32:14 21° NNE 07:36:07 10° E daylight
25 Feb - 09:10:27 10° NW 09:15:23 82° NE 09:20:47 10° SE daylight
25 Feb - 10:53:57 10° WNW 10:57:24 18° WSW 11:01:00 10° SSW daylight
25 Feb - 23:50:30 10° SSE 23:53:30 19° ESE 23:56:33 10° ENE night (unlit)
26 Feb - 01:31:12 10° SW 01:35:27 61° NW 01:39:55 10° NNE visible
26 Feb - 03:16:11 10° WNW 03:18:54 16° NNW 03:21:42 10° NNE visible
26 Feb - 06:45:03 10° NNW 06:48:01 16° NNE 06:51:07 10° ENE daylight
26 Feb - 08:26:44 10° NNW 08:31:31 52° NE 08:36:45 10° SE daylight
26 Feb - 10:09:29 10° NW 10:13:51 30° WSW 10:18:32 10° S daylight
26 Feb - 23:09:58 10° ESE 23:10:06 10° ESE 23:10:14 10° ESE night (unlit)
27 Feb - 00:47:23 10° SSW 00:51:39 79° SE 00:56:08 10° NE visible
27 Feb - 02:31:20 10° W 02:34:41 21° NNW 02:38:12 10° NNE visible
27 Feb - 06:01:35 10° N 06:03:42 13° NNE 06:05:53 10° NE visible
27 Feb - 07:43:05 10° NNW 07:47:34 35° NE 07:52:25 10° ESE daylight
27 Feb - 09:25:24 10° NW 09:30:13 49° WSW 09:35:28 10° SSE daylight
28 Feb - 00:03:55 10° S 00:07:59 44° ESE 00:12:12 10° NE night (unlit)
28 Feb - 01:46:44 10° WSW 01:50:35 30° NW 01:54:37 10° NNE visible
28 Feb - 03:33:07 10° NW 03:34:35 11° NNW 03:36:06 10° N visible
28 Feb - 05:18:14 10° N 05:19:19 11° NNE 05:20:26 10° NNE visible
28 Feb - 06:59:31 10° NNW 07:03:31 25° NE 07:07:48 10° E daylight
28 Feb - 08:41:31 10° NW 08:46:30 80° WSW 08:51:57 10° SSE daylight
28 Feb - 10:25:40 10° WNW 10:28:21 14° WSW 10:31:07 10° SW daylight
28 Feb - 23:20:56 10° SSE 23:24:26 25° ESE 23:28:01 10° ENE night (unlit)
29 Feb - 01:02:26 10° WSW 01:06:36 47° NW 01:10:58 10° NNE visible
29 Feb - 02:47:52 10° NW 02:50:15 14° NNW 02:52:41 10° N visible
29 Feb - 06:15:58 10° NNW 06:19:21 18° NNE 06:22:55 10° ENE daylight
29 Feb - 07:57:46 10° NNW 08:02:41 66° NE 08:08:04 10° SE daylight
29 Feb - 09:40:50 10° WNW 09:44:51 24° WSW 09:49:08 10° SSW daylight
29 Feb - 22:38:45 10° SE 22:40:59 14° ESE 22:43:15 10° ENE night (unlit)
01 Mar - 00:18:26 10° SW 00:22:44 79° NW 00:27:15 10° NE visible
01 Mar - 02:02:54 10° WNW 02:05:58 18° NNW 02:09:11 10° NNE visible
01 Mar - 05:32:28 10° N 05:35:05 14° NNE 05:37:48 10° NE visible
01 Mar - 07:14:05 10° NNW 07:18:46 43° NE 07:23:52 10° ESE daylight
01 Mar - 08:56:35 10° NW 09:01:16 39° WSW 09:06:19 10° S daylight
01 Mar - 23:34:47 10° SSW 23:39:00 59° ESE 23:43:24 10° NE night (unlit)
02 Mar - 01:18:10 10° W 01:21:49 25° NW 01:25:38 10° NNE visible
02 Mar - 03:04:58 10° NNW 03:05:59 11° N 03:07:01 10° N visible
02 Mar - 04:49:00 10° N 04:50:43 12° NNE 04:52:29 10° NE visible
02 Mar - 06:30:28 10° NNW 06:34:46 29° NE 06:39:24 10° E daylight
02 Mar - 08:12:37 10° NW 08:17:35 63° WSW 08:23:00 10° SSE daylight
02 Mar - 09:58:06 10° W 09:59:15 11° WSW 10:00:26 10° WSW daylight
02 Mar - 22:51:32 10° S 22:55:23 33° ESE 22:59:22 10° NE night (unlit)
